Tracking 31027 objects as of 19-Jul-2025
HD Live streaming from Space Station
objects crossing your sky now

COSMOS 1275 DEB

Track COSMOS 1275 DEB now!
10-day predictions


NORAD ID: 14406
Int'l Code: 1981-053JE
Perigee: 818.5 km
Apogee: 849.1 km
Inclination: 82.8 °
Period: 101.4 minutes
Semi major axis: 7204 km
RCS: 0.0178 m2 (small)
Launch date: June 4, 1981
Source: Commonwealth of Independent States (former USSR) (CIS)
Launch site: PLESETSK MISSILE AND SPACE COMPLEX (PKMTR)

Note: This is SATELLITE DEBRIS
Your satellite tracking list
FENGYUN 1C DEB
Track 1 satellite(s)




NASA's NSSDC Master Catalog

Two Line Element Set (TLE):
1 14406U 81053JB  25199.30861013  .00002061  00000-0  96644-3 0  9991
2 14406  82.8398 295.6925 0021242 129.1075 285.8752 14.19618402174408
Source of the keplerian elements: AFSPC